SCP
0 0 0 0 0 0 0 0 0 0 0 0 0 0 0 0 -0 0 0 0 0 0 0 0 0 0 0 0 0 0 0 0 0 0 0 0 0 0 0 0 0 0 0 1 0
0 0 0 0 0 0 0 0 0 0 0 0 0 0 0 0 0 0 0 0 0 0 0 0 0 0 0 0 0 0 0 0 0 0 0 0 0 0 0 0 0 0 1 1 0
0 0 0 0 0 0 0 0 0 0 0 0 0 0 0 0 0 0 0 0 0 0 0 0 0 0 0 0 0 0 0 0 0 0 0 0 0 0 0 0 0 0 0 0 0
0 0 0 0 0 0 0 0 0 0 0 0 0 0 0 -0 0 0 0 0 0 0 0 0 0 0 0 0 0 0 0 0 0 0 0 0 0 0 0 0 0 0 0 1 0
0 0 0 0 0 0 0 0 0 0 0 0 0 0 0 0 0 0 0 0 0 0 0 0 0 0 0 0 0 0 0 0 0 0 0 0 0 0 0 0 0 0 0 0 0
0 0 0 0 0 0 0 0 0 0 0 -0 0 0 0 0 0 0 0 0 0 0 0 0 0 0 0 0 0 0 0 0 0 0 0 0 0 0 0 0 0 0 0 0 0
0 0 0 0 0 0 0 0 0 0 0 -0 0 0 0 0 0 0 0 0 0 0 0 0 0 0 0 0 0 0 0 0 0 0 0 0 0 0 0 0 0 0 0 0 0
0 0 0 0 0 0 0 0 0 0 0 0 0 0 0 0 0 0 0 0 0 0 0 0 0 0 0 0 0 0 0 0 0 0 0 0 0 0 0 0 0 0 0 0 0
0 0 0 0 0 0 0 0 0 0 0 0 0 0 0 0 0 0 0 0 0 0 0 0 0 0 0 0 0 0 0 0 0 0 0 0 0 0 0 0 0 0 0 0 0
0 0 0 0 0 0 0 -0 -0 0 0 -0 0 0 0 0 0 0 0 0 0 0 0 0 0 0 0 0 0 0 0 0 0 0 0 0 0 0 0 0 0 0 0 0 0
0 0 0 0 0 0 0 0 -0 0 0 0 0 0 0 0 -0 0 0 0 0 0 0 0 0 0 0 0 0 0 0 0 0 0 0 0 0 0 0 0 0 0 0 0 0
0 0 0 0 0 -0 -0 0 0 0 0 0 0 0 0 -0 0 0 -0 -0 0 0 0 0 0 0 0 0 0 0 0 0 0 0 0 0 0 0 0 0 0 0 0 0 0
0 0 0 0 -0 0 0 0 0 0 0 0 0 0 0 -0 0 0 0 -0 -0 0 0 0 0 0 0 0 0 0 0 0 0 0 0 0 0 0 0 0 0 0 0 0 0
0 0 0 -0 -0 0 0 0 0 0 0 0 0 0 0 0 0 0 0 -0 -0 -0 -0 -0 0 0 0 0 0 0 0 0 0 0 0 0 0 0 0 0 0 0 0 0 0
0 0 0 -0 0 0 0 0 -0 -0 0 0 0 -0 0 0 -0 0 0 0 -0 0 -0 -0 -0 -0 -0 0 0 0 0 0 0 0 0 0 0 0 0 0 0 0 0 0 0
0 0 0 0 0 0 -0 -0 -0 0 0 0 0 0 0 0 0 0 0 0 0 0 0 0 0 0 0 0 0 0 0 0 0 0 0 0 0 0 0 0 0 0 0 0 0
0 0 0 -0 0 -0 -0 0 0 0 0 0 0 -0 -0 -0 0 0 0 0 0 0 0 0 0 0 0 -0 0 0 0 0 0 0 0 0 0 0 0 0 0 0 0 0 0
0 -0 0 0 -0 -0 -0 -0 0 0 0 0 -0 -0 0 -0 0 0 0 0 0 0 0 0 0 0 0 -0 0 -0 0 0 0 0 0 0 0 0 0 0 0 0 0 0 0
0 0 0 -0 -0 -0 0 0 0 0 0 0 0 -0 0 0 0 -0 0 0 0 0 0 0 0 0 0 0 0 0 0 -0 0 0 0 0 0 0 0 0 0 0 0 0 0
0 0 0 -0 0 0 0 0 0 0 0 -0 0 0 0 0 0 -0 0 0 -0 0 0 0 0 0 0 0 0 -0 0 0 0 0 0 0 0 0 0 0 0 0 0 0 0
0 0 -0 -0 0 0 0 0 0 0 -0 0 -0 0 0 0 0 0 0 0 -0 0 0 0 0 0 -0 -0 -0 0 -0 0 0 0 0 0 0 0 0 0 0 0 0 0 0
0 0 -0 0 0 0 0 0 -0 0 -0 0 -0 -0 -0 0 0 0 0 0 0 0 0 0 0 0 0 -0 -0 -0 -0 0 0 0 0 0 0 0 0 0 0 0 0 0 0
0 0 0 0 0 0 0 0 0 0 -0 -0 -0 0 -0 -0 0 0 -0 0 0 0 0 0 0 0 0 -0 -0 -0 -0 0 0 0 -0 -0 0 0 0 0 0 0 0 0 0
0 0 0 0 0 0 0 0 0 -0 -0 0 -0 0 -0 0 0 0 0 0 0 0 0 0 0 0 0 -0 -0 0 -0 -0 -0 -0 -0 -0 -0 -0 0 0 0 0 0 0 0
0 0 0 0 0 0 0 0 -0 0 0 0 -0 -0 -0 -0 0 0 0 0 0 -0 0 0 0 -0 0 -0 -0 -0 -0 -0 -0 -0 -0 -0 -0 -0 0 0 0 -0 0 0 0
0 0 0 0 0 0 0 0 -0 0 0 -0 0 -0 -0 0 0 -0 -0 -0 -0 0 0 0 0 0 0 0 -0 -0 -0 -0 -0 -0 -0 0 0 -0 -0 0 -0 0 0 0 0
0 -0 0 0 0 0 0 -0 0 0 0 -0 0 0 0 0 0 0 0 0 -0 -0 0 0 0 0 0 -0 0 -0 -0 -0 -0 -0 -0 -0 -0 -0 -0 0 0 0 0 0 0
Wind_Speed_500mb
7 6 5 5 4 4 5 7 8 10 10 11 12 11 11 12 30 22 11 9 13 12 8 16 17 16 17 26 24 22 24 29 37 33 26 22 10 18 9 25 15 26 14 20 38
6 5 5 5 4 5 6 9 10 11 10 11 11 10 8 8 19 27 19 11 6 1 12 15 19 18 27 24 22 28 25 39 33 19 10 4 20 25 19 28 24 12 10 26 43
5 5 6 5 6 8 11 11 10 10 11 11 10 10 7 8 7 19 20 8 4 4 14 15 17 20 34 35 33 31 36 34 23 14 17 19 21 10 25 25 27 38 24 31 42
6 7 6 6 7 9 11 11 12 13 13 11 9 9 14 13 2 26 25 11 6 15 15 14 17 27 29 34 36 41 43 39 27 6 21 27 19 13 25 13 16 18 26 30 39
7 6 6 6 8 10 10 11 13 13 10 8 7 10 19 15 17 30 36 26 13 13 12 16 20 24 31 27 32 31 36 37 30 22 28 30 25 26 27 28 14 17 23 29 34
8 8 7 8 10 10 11 12 13 11 7 5 15 17 5 21 21 28 29 16 13 16 16 16 19 19 28 34 28 25 27 46 32 34 34 31 37 38 29 32 28 31 34 33 33
9 9 8 8 9 9 9 12 13 10 8 20 38 41 41 18 22 27 27 19 20 16 20 16 17 20 20 25 38 27 28 34 39 38 34 29 42 48 44 31 40 44 40 38 37
9 7 7 8 6 6 11 15 16 17 19 19 24 16 17 18 21 31 28 22 20 17 19 23 23 29 34 32 22 31 36 38 41 44 43 34 44 45 69 48 47 39 48 47 44
12 10 7 7 9 10 19 21 26 28 33 33 16 14 14 16 34 35 33 31 26 19 21 20 25 35 35 26 33 39 38 45 41 50 38 38 35 31 20 32 46 47 39 43 44
16 14 8 10 12 14 29 54 52 23 17 19 21 12 30 23 21 35 40 29 31 26 29 31 30 27 29 29 39 36 49 42 44 28 34 47 42 19 27 22 29 40 42 38 42
19 18 11 11 7 9 19 6 7 12 46 43 32 28 20 19 13 36 45 32 32 31 19 22 26 30 39 41 50 47 52 53 31 30 30 39 44 48 39 30 30 30 30 38 43
19 20 7 10 16 16 15 6 8 30 28 27 25 23 22 14 20 33 42 31 32 24 28 24 34 28 30 40 40 36 45 48 39 19 12 27 40 41 41 42 43 44 40 37 35
19 18 16 7 16 21 13 11 18 15 13 14 16 25 31 9 25 32 40 35 24 25 29 32 35 38 29 35 35 38 43 42 44 39 39 33 39 45 40 36 45 43 39 36 39
19 20 19 12 15 11 8 15 16 14 12 10 16 15 27 4 5 24 30 23 18 21 21 18 19 17 29 38 39 44 43 48 48 44 41 42 35 44 49 46 42 50 56 53 49
24 23 19 9 7 6 6 12 15 3 5 9 12 9 10 20 19 30 21 15 22 23 15 22 24 25 31 34 33 44 44 44 45 47 46 50 33 31 39 48 58 40 37 36 43
30 32 22 14 12 12 15 18 6 6 7 4 7 15 18 22 9 21 14 7 12 29 23 27 36 22 27 26 29 32 40 41 37 38 37 52 40 30 30 25 20 24 30 26 23
31 34 22 16 6 14 16 4 3 9 2 9 13 16 17 24 9 26 20 24 20 20 31 40 25 16 11 25 17 34 30 23 29 31 26 45 45 33 5 8 23 23 18 11 8
27 34 30 23 21 12 1 7 13 6 10 8 12 16 10 17 20 21 23 19 23 27 30 23 23 19 16 33 33 29 28 25 34 31 32 47 46 41 18 12 26 25 12 9 5
20 22 25 21 14 9 10 12 4 6 9 14 9 11 9 21 13 20 24 16 17 26 17 19 16 29 12 20 21 11 27 32 39 16 17 30 30 41 42 41 21 19 5 9 12
7 7 27 19 21 15 11 8 8 7 10 7 12 8 16 26 22 25 27 9 24 29 14 11 17 16 20 8 21 31 11 13 8 8 17 29 32 16 25 23 22 24 26 29 27
5 5 14 21 13 9 6 11 14 9 10 10 11 9 16 19 14 16 20 10 31 28 31 7 8 18 20 21 29 13 15 16 19 14 7 19 11 12 21 21 24 26 26 25 31
3 4 12 11 4 10 13 6 3 10 4 6 3 9 13 12 8 13 13 15 26 34 30 16 9 6 14 40 24 23 13 17 18 5 4 9 11 21 32 33 27 29 31 35 36
11 14 16 9 7 11 16 17 13 9 12 5 8 9 4 11 3 18 16 14 18 29 26 26 20 21 2 45 44 41 41 11 15 15 22 9 10 30 45 40 35 38 46 49 49
6 5 14 20 20 18 17 11 9 7 11 4 4 3 7 7 13 16 19 13 7 29 25 14 35 34 27 23 31 28 52 49 34 14 15 21 26 42 39 37 44 50 52 54 51
7 6 4 4 15 17 15 6 11 5 2 11 1 9 7 6 7 26 23 22 2 33 6 3 21 38 32 39 44 54 52 53 52 37 20 26 22 41 38 36 43 48 51 54 54
10 11 17 21 11 11 5 10 12 9 10 9 13 10 7 5 13 13 20 21 21 28 7 5 17 13 13 12 52 55 54 53 52 52 44 37 31 53 51 46 47 53 55 55 56
15 25 10 12 10 6 9 8 10 8 9 12 13 12 7 7 7 9 14 17 34 32 15 9 6 6 7 20 14 36 37 40 40 44 40 32 40 56 49 53 49 55 57 54 54
Wind_Direction_500mb
97 89 77 68 53 7 343 348 343 344 358 360 357 1 16 44 54 39 5 299 282 277 274 303 280 262 253 243 238 252 261 248 249 247 244 115 206 183 237 239 197 220 267 105 147
79 66 54 37 15 350 344 354 351 346 353 358 353 7 25 85 114 28 353 349 325 329 7 295 278 256 249 244 223 230 233 250 260 313 284 159 230 187 211 214 168 191 192 145 151
69 48 36 15 359 350 351 355 346 336 348 357 5 20 45 120 165 10 348 349 35 83 316 294 277 263 253 240 227 242 248 267 264 278 287 265 220 184 226 196 190 188 165 163 161
58 42 26 8 1 2 4 351 341 339 350 354 11 47 88 105 1 343 346 329 359 9 328 297 274 254 253 249 234 246 259 261 269 287 257 250 248 214 242 204 127 126 167 169 170
55 49 27 8 8 8 1 345 338 335 338 337 30 110 107 95 20 349 359 340 333 322 307 303 285 270 262 256 260 241 261 259 255 239 251 261 246 228 230 231 168 170 183 180 177
39 39 23 11 12 6 357 349 341 335 343 30 83 101 97 88 6 354 352 348 323 305 290 291 289 299 292 277 260 271 274 258 237 242 239 245 244 237 231 231 219 215 211 197 190
36 24 0 8 12 4 4 7 8 16 74 107 106 94 85 64 11 2 359 350 333 308 289 287 280 272 295 276 263 252 251 250 244 237 237 236 248 240 229 213 224 220 216 212 204
28 4 339 357 21 34 37 47 53 65 84 115 108 68 85 31 16 5 358 344 335 309 288 273 269 268 271 264 258 251 244 251 235 223 226 226 250 228 219 216 218 215 216 216 216
32 6 355 30 82 81 64 78 79 74 94 81 49 120 66 3 13 7 357 338 331 301 293 278 259 254 262 242 256 236 250 239 241 228 203 204 243 233 185 218 227 212 205 208 208
34 28 57 72 90 113 98 89 71 57 58 94 42 111 29 355 359 6 2 349 340 313 289 243 246 246 229 245 247 247 236 235 251 190 212 232 232 213 186 193 208 208 201 207 215
42 46 70 71 65 133 149 105 128 68 69 76 66 68 20 6 17 3 3 354 348 322 286 319 295 260 265 248 254 260 270 272 269 224 205 226 245 237 184 201 195 196 203 201 207
44 42 53 52 59 90 109 247 89 133 87 70 65 49 27 18 22 21 9 7 341 337 310 276 259 268 312 303 291 266 270 253 255 234 200 244 247 238 215 203 215 212 209 207 205
34 31 32 96 74 72 109 130 126 120 114 59 45 32 14 17 35 18 11 12 6 335 341 320 304 322 313 292 279 262 261 261 258 246 221 232 250 252 244 227 223 228 231 224 215
23 32 34 95 75 118 81 129 147 140 197 46 25 21 4 122 67 10 6 360 13 359 346 298 337 312 296 292 290 273 261 262 259 253 241 206 249 234 235 238 229 234 234 229 226
31 31 35 90 124 119 146 157 165 312 266 47 25 356 27 42 337 15 357 355 351 350 312 325 303 295 287 285 292 286 287 274 267 247 249 242 232 245 245 226 214 214 230 228 226
36 30 30 57 89 122 134 140 157 234 53 79 9 351 348 20 13 346 344 344 343 322 286 295 293 286 291 298 279 278 264 264 255 255 234 235 236 228 234 216 194 216 198 199 202
30 28 37 114 120 127 136 168 204 56 163 23 346 340 327 4 352 354 347 44 13 339 335 319 345 348 322 289 304 266 239 236 230 227 227 224 237 230 216 291 189 144 106 129 127
35 47 52 87 106 104 77 220 68 321 20 359 332 305 22 16 357 337 6 9 5 336 321 343 325 5 316 302 291 290 261 230 228 214 221 230 220 225 185 116 90 82 62 63 32
42 38 30 57 68 49 280 54 66 18 359 345 274 325 24 23 331 344 28 19 345 8 341 312 309 298 293 281 279 267 247 258 252 301 275 211 190 59 32 27 63 84 66 21 352
45 89 24 68 62 49 61 101 98 32 340 289 22 7 355 17 4 354 13 347 354 346 333 299 289 17 340 30 253 251 337 256 99 251 205 216 168 73 43 18 19 24 14 355 330
118 150 1 63 57 59 93 93 98 64 11 342 20 12 12 27 344 18 7 88 8 342 334 290 265 337 27 7 329 175 223 224 212 237 317 190 66 16 32 34 17 355 340 326 329
106 85 26 52 45 61 74 77 71 56 93 70 343 10 25 17 18 17 360 17 3 343 358 0 293 8 41 42 18 43 275 255 199 241 346 300 97 22 14 13 1 355 344 336 333
83 71 26 31 95 96 122 97 66 53 34 25 51 41 19 16 10 22 358 49 11 7 5 328 11 32 32 28 32 34 31 46 310 289 0 12 62 24 11 3 355 346 341 337 333
130 56 41 69 78 112 110 93 113 59 62 32 13 70 256 88 61 16 358 18 74 23 1 7 63 72 63 49 38 41 40 37 38 20 355 24 359 3 1 358 359 354 341 333 329
75 63 135 115 77 92 91 78 78 84 39 20 139 59 337 360 56 30 19 14 151 359 34 31 105 98 90 70 58 54 46 40 39 30 24 15 28 0 357 351 2 350 341 336 332
110 129 113 106 111 108 137 64 44 79 8 21 6 13 266 50 53 31 38 30 33 345 24 172 175 165 47 98 64 40 40 35 31 20 22 17 22 357 355 350 5 355 347 341 336
108 123 115 153 103 74 41 49 46 340 75 31 355 318 196 89 7 46 71 70 34 17 9 9 6 322 50 5 315 29 28 41 30 22 10 18 351 349 351 346 11 358 353 345 340
Wind_Speed_850mb
7 6 5 5 4 4 5 7 8 10 10 11 12 11 11 12 30 22 11 9 13 12 8 16 17 16 17 26 24 22 24 29 37 33 26 22 10 18 9 25 15 26 14 20 38
6 5 5 5 4 5 6 9 10 11 10 11 11 10 8 8 19 27 19 11 6 1 12 15 19 18 27 24 22 28 25 39 33 19 10 4 20 25 19 28 24 12 10 26 43
5 5 6 5 6 8 11 11 10 10 11 11 10 10 7 8 7 19 20 8 4 4 14 15 17 20 34 35 33 31 36 34 23 14 17 19 21 10 25 25 27 38 24 31 42
6 7 6 6 7 9 11 11 12 13 13 11 9 9 14 13 2 26 25 11 6 15 15 14 17 27 29 34 36 41 43 39 27 6 21 27 19 13 25 13 16 18 26 30 39
7 6 6 6 8 10 10 11 13 13 10 8 7 10 19 15 17 30 36 26 13 13 12 16 20 24 31 27 32 31 36 37 30 22 28 30 25 26 27 28 14 17 23 29 34
8 8 7 8 10 10 11 12 13 11 7 5 15 17 5 21 21 28 29 16 13 16 16 16 19 19 28 34 28 25 27 46 32 34 34 31 37 38 29 32 28 31 34 33 33
9 9 8 8 9 9 9 12 13 10 8 20 38 41 41 18 22 27 27 19 20 16 20 16 17 20 20 25 38 27 28 34 39 38 34 29 42 48 44 31 40 44 40 38 37
9 7 7 8 6 6 11 15 16 17 19 19 24 16 17 18 21 31 28 22 20 17 19 23 23 29 34 32 22 31 36 38 41 44 43 34 44 45 69 48 47 39 48 47 44
12 10 7 7 9 10 19 21 26 28 33 33 16 14 14 16 34 35 33 31 26 19 21 20 25 35 35 26 33 39 38 45 41 50 38 38 35 31 20 32 46 47 39 43 44
16 14 8 10 12 14 29 54 52 23 17 19 21 12 30 23 21 35 40 29 31 26 29 31 30 27 29 29 39 36 49 42 44 28 34 47 42 19 27 22 29 40 42 38 42
19 18 11 11 7 9 19 6 7 12 46 43 32 28 20 19 13 36 45 32 32 31 19 22 26 30 39 41 50 47 52 53 31 30 30 39 44 48 39 30 30 30 30 38 43
19 20 7 10 16 16 15 6 8 30 28 27 25 23 22 14 20 33 42 31 32 24 28 24 34 28 30 40 40 36 45 48 39 19 12 27 40 41 41 42 43 44 40 37 35
19 18 16 7 16 21 13 11 18 15 13 14 16 25 31 9 25 32 40 35 24 25 29 32 35 38 29 35 35 38 43 42 44 39 39 33 39 45 40 36 45 43 39 36 39
19 20 19 12 15 11 8 15 16 14 12 10 16 15 27 4 5 24 30 23 18 21 21 18 19 17 29 38 39 44 43 48 48 44 41 42 35 44 49 46 42 50 56 53 49
24 23 19 9 7 6 6 12 15 3 5 9 12 9 10 20 19 30 21 15 22 23 15 22 24 25 31 34 33 44 44 44 45 47 46 50 33 31 39 48 58 40 37 36 43
30 32 22 14 12 12 15 18 6 6 7 4 7 15 18 22 9 21 14 7 12 29 23 27 36 22 27 26 29 32 40 41 37 38 37 52 40 30 30 25 20 24 30 26 23
31 34 22 16 6 14 16 4 3 9 2 9 13 16 17 24 9 26 20 24 20 20 31 40 25 16 11 25 17 34 30 23 29 31 26 45 45 33 5 8 23 23 18 11 8
27 34 30 23 21 12 1 7 13 6 10 8 12 16 10 17 20 21 23 19 23 27 30 23 23 19 16 33 33 29 28 25 34 31 32 47 46 41 18 12 26 25 12 9 5
20 22 25 21 14 9 10 12 4 6 9 14 9 11 9 21 13 20 24 16 17 26 17 19 16 29 12 20 21 11 27 32 39 16 17 30 30 41 42 41 21 19 5 9 12
7 7 27 19 21 15 11 8 8 7 10 7 12 8 16 26 22 25 27 9 24 29 14 11 17 16 20 8 21 31 11 13 8 8 17 29 32 16 25 23 22 24 26 29 27
5 5 14 21 13 9 6 11 14 9 10 10 11 9 16 19 14 16 20 10 31 28 31 7 8 18 20 21 29 13 15 16 19 14 7 19 11 12 21 21 24 26 26 25 31
3 4 12 11 4 10 13 6 3 10 4 6 3 9 13 12 8 13 13 15 26 34 30 16 9 6 14 40 24 23 13 17 18 5 4 9 11 21 32 33 27 29 31 35 36
11 14 16 9 7 11 16 17 13 9 12 5 8 9 4 11 3 18 16 14 18 29 26 26 20 21 2 45 44 41 41 11 15 15 22 9 10 30 45 40 35 38 46 49 49
6 5 14 20 20 18 17 11 9 7 11 4 4 3 7 7 13 16 19 13 7 29 25 14 35 34 27 23 31 28 52 49 34 14 15 21 26 42 39 37 44 50 52 54 51
7 6 4 4 15 17 15 6 11 5 2 11 1 9 7 6 7 26 23 22 2 33 6 3 21 38 32 39 44 54 52 53 52 37 20 26 22 41 38 36 43 48 51 54 54
10 11 17 21 11 11 5 10 12 9 10 9 13 10 7 5 13 13 20 21 21 28 7 5 17 13 13 12 52 55 54 53 52 52 44 37 31 53 51 46 47 53 55 55 56
15 25 10 12 10 6 9 8 10 8 9 12 13 12 7 7 7 9 14 17 34 32 15 9 6 6 7 20 14 36 37 40 40 44 40 32 40 56 49 53 49 55 57 54 54
Wind_Direction_850mb
97 89 77 68 53 7 343 348 343 344 358 360 357 1 16 44 54 39 5 299 282 277 274 303 280 262 253 243 238 252 261 248 249 247 244 115 206 183 237 239 197 220 267 105 147
79 66 54 37 15 350 344 354 351 346 353 358 353 7 25 85 114 28 353 349 325 329 7 295 278 256 249 244 223 230 233 250 260 313 284 159 230 187 211 214 168 191 192 145 151
69 48 36 15 359 350 351 355 346 336 348 357 5 20 45 120 165 10 348 349 35 83 316 294 277 263 253 240 227 242 248 267 264 278 287 265 220 184 226 196 190 188 165 163 161
58 42 26 8 1 2 4 351 341 339 350 354 11 47 88 105 1 343 346 329 359 9 328 297 274 254 253 249 234 246 259 261 269 287 257 250 248 214 242 204 127 126 167 169 170
55 49 27 8 8 8 1 345 338 335 338 337 30 110 107 95 20 349 359 340 333 322 307 303 285 270 262 256 260 241 261 259 255 239 251 261 246 228 230 231 168 170 183 180 177
39 39 23 11 12 6 357 349 341 335 343 30 83 101 97 88 6 354 352 348 323 305 290 291 289 299 292 277 260 271 274 258 237 242 239 245 244 237 231 231 219 215 211 197 190
36 24 0 8 12 4 4 7 8 16 74 107 106 94 85 64 11 2 359 350 333 308 289 287 280 272 295 276 263 252 251 250 244 237 237 236 248 240 229 213 224 220 216 212 204
28 4 339 357 21 34 37 47 53 65 84 115 108 68 85 31 16 5 358 344 335 309 288 273 269 268 271 264 258 251 244 251 235 223 226 226 250 228 219 216 218 215 216 216 216
32 6 355 30 82 81 64 78 79 74 94 81 49 120 66 3 13 7 357 338 331 301 293 278 259 254 262 242 256 236 250 239 241 228 203 204 243 233 185 218 227 212 205 208 208
34 28 57 72 90 113 98 89 71 57 58 94 42 111 29 355 359 6 2 349 340 313 289 243 246 246 229 245 247 247 236 235 251 190 212 232 232 213 186 193 208 208 201 207 215
42 46 70 71 65 133 149 105 128 68 69 76 66 68 20 6 17 3 3 354 348 322 286 319 295 260 265 248 254 260 270 272 269 224 205 226 245 237 184 201 195 196 203 201 207
44 42 53 52 59 90 109 247 89 133 87 70 65 49 27 18 22 21 9 7 341 337 310 276 259 268 312 303 291 266 270 253 255 234 200 244 247 238 215 203 215 212 209 207 205
34 31 32 96 74 72 109 130 126 120 114 59 45 32 14 17 35 18 11 12 6 335 341 320 304 322 313 292 279 262 261 261 258 246 221 232 250 252 244 227 223 228 231 224 215
23 32 34 95 75 118 81 129 147 140 197 46 25 21 4 122 67 10 6 360 13 359 346 298 337 312 296 292 290 273 261 262 259 253 241 206 249 234 235 238 229 234 234 229 226
31 31 35 90 124 119 146 157 165 312 266 47 25 356 27 42 337 15 357 355 351 350 312 325 303 295 287 285 292 286 287 274 267 247 249 242 232 245 245 226 214 214 230 228 226
36 30 30 57 89 122 134 140 157 234 53 79 9 351 348 20 13 346 344 344 343 322 286 295 293 286 291 298 279 278 264 264 255 255 234 235 236 228 234 216 194 216 198 199 202
30 28 37 114 120 127 136 168 204 56 163 23 346 340 327 4 352 354 347 44 13 339 335 319 345 348 322 289 304 266 239 236 230 227 227 224 237 230 216 291 189 144 106 129 127
35 47 52 87 106 104 77 220 68 321 20 359 332 305 22 16 357 337 6 9 5 336 321 343 325 5 316 302 291 290 261 230 228 214 221 230 220 225 185 116 90 82 62 63 32
42 38 30 57 68 49 280 54 66 18 359 345 274 325 24 23 331 344 28 19 345 8 341 312 309 298 293 281 279 267 247 258 252 301 275 211 190 59 32 27 63 84 66 21 352
45 89 24 68 62 49 61 101 98 32 340 289 22 7 355 17 4 354 13 347 354 346 333 299 289 17 340 30 253 251 337 256 99 251 205 216 168 73 43 18 19 24 14 355 330
118 150 1 63 57 59 93 93 98 64 11 342 20 12 12 27 344 18 7 88 8 342 334 290 265 337 27 7 329 175 223 224 212 237 317 190 66 16 32 34 17 355 340 326 329
106 85 26 52 45 61 74 77 71 56 93 70 343 10 25 17 18 17 360 17 3 343 358 0 293 8 41 42 18 43 275 255 199 241 346 300 97 22 14 13 1 355 344 336 333
83 71 26 31 95 96 122 97 66 53 34 25 51 41 19 16 10 22 358 49 11 7 5 328 11 32 32 28 32 34 31 46 310 289 0 12 62 24 11 3 355 346 341 337 333
130 56 41 69 78 112 110 93 113 59 62 32 13 70 256 88 61 16 358 18 74 23 1 7 63 72 63 49 38 41 40 37 38 20 355 24 359 3 1 358 359 354 341 333 329
75 63 135 115 77 92 91 78 78 84 39 20 139 59 337 360 56 30 19 14 151 359 34 31 105 98 90 70 58 54 46 40 39 30 24 15 28 0 357 351 2 350 341 336 332
110 129 113 106 111 108 137 64 44 79 8 21 6 13 266 50 53 31 38 30 33 345 24 172 175 165 47 98 64 40 40 35 31 20 22 17 22 357 355 350 5 355 347 341 336
108 123 115 153 103 74 41 49 46 340 75 31 355 318 196 89 7 46 71 70 34 17 9 9 6 322 50 5 315 29 28 41 30 22 10 18 351 349 351 346 11 358 353 345 340